Location: Unspecified
(47.4992°N, 121.7766°W)
Time: 14:18:56
(UTC-07:00)

Okean 3 - Pass Details

Date: 04 August 2024
Orbit: 557 x 580 km, 82.5° (Epoch: 17 September)

Event Time Altitude Azimuth Distance (km) Brightness Sun altitude
Rises 02:30:02 0° 2° (N) 2,767 8.1 -23.2°
Reaches altitude 10° 02:32:38 10° 18° (NNE) 1,861 7.1 -23.0°
Maximum altitude 02:35:50 22° 70° (ENE) 1,255 5.5 -22.8°
Enters shadow 02:38:28 13° 116° (ESE) 1,674 5.7 -22.7°
